sat.trackr.live / text

‹ back to catalog

STARLINK-5883

NORAD 55956 · 2023-037AU

PAYLOAD ACTIVE UNKNOWN

§ Identity

Operator
Country
US
Launch date
2023-03-17
Launch site
AFWTR
Launch vehicle
Mass (kg)
RCS (m²)

Purposes: comms

External: N2YO · Heavens-Above · Gunter

§ Orbital elements

Epoch: 2026-05-25T02:44:20.743008Z

Period
96.11 min
Inclination
70.0007°
Eccentricity
0.0002890
Mean motion
14.98331930 rev/d
Perigee alt
570.0 km
Apogee alt
574.1 km
Semi-major
6,950.2 km
B*
5.3140e-6
RAAN
71.6530°
Arg perigee
269.7772°
Mean anomaly
90.3056°
Rev number
17,592

§ Raw data

STARLINK-58831 55956U 23037AU  26145.11412897 -.00000030  00000+0  53140-5 0  99972 55956  70.0007  71.6530 0002890 269.7772  90.3056 14.98331930175925

JSON: /api/v1/satellites/55956 · /tle

For live sub-satellite position, see the globe view (requires WebGL).

§ Visibility from observer

Set your observer location to see the next 7 days of passes ≥ 10°. The values pass through the URL so the page stays shareable.

No JS? Fill the form by hand. The geolocation button needs JavaScript.